Regional Weather Roundup
Issued by NWS

Home | Current Version | Previous Version | Graphics & Text | Print | Product List | Glossary On
Versions: 1 2 3 4 5 6 7 8 9 10 11 12 13 14 15 16 17 18 19 20 21 22 23 24 25 26 27 28 29 30 31 32 33 34 35 36 37 38 39 40 41 42 43 44 45 46 47 48 49 50
000
ASUS44 KMEG 190900
RWRTN
TENNESSEE HOURLY STATE WEATHER ROUNDUP
NATIONAL WEATHER SERVICE MEMPHIS TN
300 AM CST FRI DEC 19 2014

TNZ002-004-019-021-049-052-054-088>092-191000-
WEST TENNESSEE

CITY           SKY/WX    TMP DP  RH WIND       PRES   REMARKS
MEMPHIS INTL   CLOUDY    43  37  79 N7        30.20F
NWS MEMPHIS      N/A     41 N/A N/A MISG        N/A
JACKSON        CLOUDY    39  34  82 NE6       30.22F WCI  35
DYERSBURG      CLOUDY    37  25  60 NE8       30.25F WCI  31
UNION CITY     CLOUDY    34  30  86 NE9       30.24S WCI  26
PARIS          CLOUDY    32  28  86 NE5       30.23F WCI  27
LEXINGTON      CLOUDY    36  34  93 NE6       30.21S WCI  31
SAVANNAH       CLOUDY    39  36  87 NE3       30.20F
$$

TNZ008-025-027-028-033-062-065-066-191000-
NORTH MIDDLE TENNESSEE

CITY           SKY/WX    TMP DP  RH WIND       PRES   REMARKS
NASHVILLE      CLOUDY    35  30  82 N7        30.24S WCI  29
CLARKSVILLE    CLOUDY    34  29  82 N6        30.25S WCI  29
COOKEVILLE     CLEAR     28  27  93 CALM      30.20R
CROSSVILLE     MOCLDY    31  27  85 N5        30.16S FOG     WCI  26
$$

TNZ061-075-076-078-094-096-097-191000-
SOUTH MIDDLE TENNESSEE

CITY           SKY/WX    TMP DP  RH WIND       PRES   REMARKS
FAYETTEVILLE   CLOUDY    30  28  93 CALM      30.20R
TULLAHOMA      CLOUDY    28  28 100 N5        30.20R WCI  23
WINCHESTER     CLOUDY    27  27 100 CALM      30.21R VSB 0
SHELBYVILLE    CLOUDY    34  34 100 N7        30.22S WCI  28
$$

TNZ017-018-042-046-047-191000-
NORTHEAST TENNESSEE

CITY           SKY/WX    TMP DP  RH WIND       PRES   REMARKS
TRI CITIES     CLOUDY    37  24  59 CALM      30.14F
ELIZABETHTON   CLOUDY    37  27  65 W3        30.13F
$$

TNZ012-013-036-069-073-074-191000-
CENTRAL EAST TENNESSEE

CITY           SKY/WX    TMP DP  RH WIND       PRES   REMARKS
KNOXVILLE      CLEAR     32  27  81 N3        30.17S
OAK RIDGE      CLEAR     31  28  89 CALM      30.19F
GATLINBURG     CLOUDY    30  27  86 CALM      30.17S
$$

TNZ083-085-099-191000-
SOUTHEAST TENNESSEE

CITY           SKY/WX    TMP DP  RH WIND       PRES   REMARKS
CHATTANOOGA    CLEAR     34  31  88 CALM      30.18S
$$

SKY/WX REPORTED AS FAIR MEANS FEW OR NO CLOUDS BELOW
12 THOUSAND FEET.



USA.gov is the U.S. government's official web portal to all federal, state and local government web resources and services.